Location: Kernascl�den
(48.0062°N, 3.3198°W)
Time: 21:45:31
(UTC+00:00)

X-37B - Pass Details

Date: 21 January 2021
Orbit: 383 x 391 km, 45.0° (Epoch: 27 February)

Event Time Altitude Azimuth Distance (km) Brightness Sun altitude
Rises 18:05:29 0° 224° (SW) 2,265 5.6 -11.4°
Reaches altitude 10° 18:07:50 10° 207° (SSW) 1,415 4.1 -11.8°
Maximum altitude 18:10:20 21° 156° (SSE) 931 2.4 -12.2°
Enters shadow 18:11:57 15° 116° (ESE) 1,161 2.6 -12.5°
